Preview of NWS' New Version of Forecast
This preview is not operational and should not be used for support decisions.

Regional Weather Roundup (RWR)

Issued by National Weather Service (NWS)

                            
000
ASUS44 KMEG 252310
RWRTN 
TENNESSEE HOURLY STATE WEATHER ROUNDUP
NATIONAL WEATHER SERVICE MEMPHIS TN
600 PM CDT SAT MAY 25 2019

TNZ002-004-019-021-049-052-054-088>092-260000-
WEST TENNESSEE
  
CITY           SKY/WX    TMP DP  RH WIND       PRES   REMARKS
MEMPHIS INTL   FAIR      89  64  43 S12       30.06F HX  90           
NWS MEMPHIS      N/A     93 N/A N/A MISG        N/A                   
JACKSON        FAIR      86  66  51 SW6       30.09S                  
DYERSBURG      FAIR      90  65  43 S8        30.07F HX  92           
SOMERVILLE     SUNNY     90  66  45 VRB7      30.07F HX  92           
COVINGTON      MOSUNNY   90  64  43 W8        30.06F HX  91           
UNION CITY     SUNNY     88  66  48 VRB6      30.05S HX  90           
BOLIVAR        SUNNY     88  66  48 VRB5      30.08F HX  90           
PARIS          SUNNY     88  61  40 SW10      30.08F                  
HUNTINGDON     MOSUNNY   88  66  48 SW6       30.08F HX  90           
LEXINGTON      SUNNY     88  66  48 SW7G14    30.08F HX  90           
SELMER         SUNNY     88  64  45 SW3       30.09F                  
SAVANNAH       PTSUNNY   91  66  43 SW8       30.08F HX  94           
$$

TNZ008-025-027-028-033-062-065-066-260000-
NORTH MIDDLE TENNESSEE
  
CITY           SKY/WX    TMP DP  RH WIND       PRES   REMARKS
NASHVILLE      PTSUNNY   88  61  40 W10       30.11S                  
DICKSON        CLEAR     86  66  51 VRB5      30.11S                  
CLARKSVILLE    FAIR      86  62  44 SW6       30.09F                  
LEBANON        CLEAR     90  61  37 W9G16     30.09S                  
SMYRNA         FAIR      89  65  44 W8        30.11S HX  91           
MURFREESBORO   CLEAR     90  63  40 W8G17     30.09S HX  90           
COOKEVILLE     SUNNY     88  64  45 W5        30.12S                  
LIVINGSTON     CLEAR     84  63  48 W8        30.13S                  
CROSSVILLE     FAIR      83  61  47 W10G17    30.19S                  
ROCKWOOD       CLEAR     84  63  48 W8        30.16S                  
$$

TNZ061-075-076-078-094-096-097-260000-
SOUTH MIDDLE TENNESSEE
  
CITY           SKY/WX    TMP DP  RH WIND       PRES   REMARKS
LAWRENCEBURG   CLEAR     88  64  45 SW7       30.12S                  
LEWISBURG      CLEAR     88  66  48 W3        30.11S HX  90           
FAYETTEVILLE   SUNNY     88  64  45 VRB5      30.12F                  
TULLAHOMA      SUNNY     86  66  51 W9        30.13S                  
WINCHESTER     SUNNY     88  64  45 W9        30.12F                  
MCMINNVILLE    MOSUNNY   86  64  48 SW9       30.13S                  
COLUMBIA       SUNNY     88  66  48 W7        30.09F HX  90           
SHELBYVILLE    MOSUNNY   88  66  48 SW9       30.12S HX  90           
$$

TNZ017-018-042-046-047-260000-
NORTHEAST TENNESSEE
  
CITY           SKY/WX    TMP DP  RH WIND       PRES   REMARKS
TRI CITIES     FAIR      86  62  44 W12       30.14S                  
ELIZABETHTON   FAIR      86  61  42 W8        30.14S                  
GREENEVILLE    CLEAR     84  63  48 W8G16     30.14S                  
$$

TNZ012-013-036-069-073-074-260000-
CENTRAL EAST TENNESSEE
  
CITY           SKY/WX    TMP DP  RH WIND       PRES   REMARKS
KNOXVILLE      FAIR      87  63  44 SW12      30.11R                  
OAK RIDGE      FAIR      89  66  46 VRB5      30.12S HX  91           
DOWNTOWN KNOXV PTSUNNY   88  66  48 W6        30.11R HAZE    HX  90   
GATLINBURG     SUNNY     90  63  40 SW9       30.11S HX  90           
MORRISTOWN     MOSUNNY   88  64  45 W8        30.12S                  
JACKSBORO      MOSUNNY   88  63  42 VRB5      30.15S                  
$$

TNZ083-085-099-260000-
SOUTHEAST TENNESSEE
  
CITY           SKY/WX    TMP DP  RH WIND       PRES   REMARKS
CHATTANOOGA    FAIR      91  65  41 SW7       30.11S HX  93           
DAYTON         PTCLDY    91  68  46 SW7       30.10S HX  95           
$$

SKY/WX REPORTED AS FAIR MEANS FEW OR NO CLOUDS BELOW
12 THOUSAND FEET.